Location: Kershaw
(34.5481°N, 80.5823°W)
Time: 03:14:24
(UTC+00:00)

Tiros 1 despin weight - Pass Details

Date: 06 October 2022
Orbit: 590 x 637 km, 48.2° (Epoch: 30 November)

Event Time Altitude Azimuth Distance (km) Brightness Sun altitude
Rises 17:23:42 0° 178° (S) 2,801 ? 50.0°
Reaches altitude 10° 17:28:16 10° 134° (SE) 1,914 ? 49.9°
Maximum altitude 17:28:45 10° 127° (SE) 1,905 ? 49.9°
Drops below altitude 10° 17:29:14 10° 121° (ESE) 1,917 ? 49.9°
Sets 17:33:51 0° 77° (ENE) 2,837 ? 49.8°
